Montgomery, NY

7:25 AM EDT on September 20, 2017 (GMT -0400)
Orange County

Weather History for KMGJ - March, 2014

Change the Weather History Date:

Tuesday, March 11, 2014

  Actual Average (KSWF) Record (KSWF)
Temperature  
Mean Temperature 44 °F -  
Max Temperature 57 °F 41 °F 73 °F (1977)
Min Temperature 32 °F 23 °F 5 °F (1984)
Degree Days  
Heating Degree Days 20    
Moisture  
Dew Point 28 °F    
Average Humidity 57    
Maximum Humidity 82    
Minimum Humidity 27    
Precipitation  
Precipitation 0.00 in - - ()
Sea Level Pressure  
Sea Level Pressure 29.61 in    
Wind  
Wind Speed 6 mph (WSW)    
Max Wind Speed 13 mph    
Max Gust Speed -    
Visibility 10 miles    
Events Rain    
Averages and records for this station are not official NWS values.
T = Trace of Precipitation, MM = Missing Value Source: NWS Daily Summary

Daily Weather History Graph

Daily Weather History Graph

Search for Another Location

Airport or City:

Trip Planner

Search our weather history database for the weather conditions in past years. The results will help you decide how hot, cold, wet, or windy it might be!

Date:

Astronomy

Mar. 11, 2014 Rise Set
Actual Time 7:15 AM EDT 6:59 PM EDT
Civil Twilight 6:47 AM EDT 7:26 PM EDT
Nautical Twilight 6:15 AM EDT 7:58 PM EDT
Astronomical Twilight 5:43 AM EDT 8:31 PM EDT
Moon 2:30 PM EDT (3/11) 4:10 AM EDT (3/11)
Length of Visible Light 12h 38m
Length of Day
11h 43m
Waxing Gibbous, 78% of the Moon is Illuminated
Mar 11
Waxing Gibbous
Mar 16
Full
Mar 23
Last Quarter
Mar 30
New
Apr 7
First Quarter

Hourly Weather History & Observations

Time (EDT) Temp. Windchill Dew Point Humidity Pressure Visibility Wind Dir Wind Speed Gust Speed Precip Events Conditions
12:54 AM 33.1 °F 27.7 °F 27.0 °F 78% 29.55 in 9.0 mi North 5.8 mph - 0.00 in   Clear
1:54 AM 37.9 °F 33.5 °F 28.0 °F 68% 29.54 in 10.0 mi SW 5.8 mph - N/A   Clear
2:54 AM 39.0 °F 32.8 °F 28.0 °F 65% 29.53 in 10.0 mi SW 9.2 mph - 0.00 in   Clear
3:54 AM 39.0 °F 32.8 °F 28.9 °F 67% 29.52 in 10.0 mi SW 9.2 mph - N/A   Clear
4:54 AM 37.9 °F 32.7 °F 28.0 °F 68% 29.54 in 10.0 mi SSW 6.9 mph - N/A   Clear
5:54 AM 34.0 °F 29.8 °F 28.0 °F 79% 29.57 in 10.0 mi SW 4.6 mph - N/A   Clear
6:54 AM 32.0 °F 26.4 °F 27.0 °F 82% 29.59 in 9.0 mi SW 5.8 mph - N/A   Clear
7:54 AM 36.0 °F 32.1 °F 28.9 °F 76% 29.61 in 9.0 mi SW 4.6 mph - N/A   Clear
8:54 AM 39.9 °F 34.5 °F 30.9 °F 70% 29.62 in 10.0 mi SSW 8.1 mph - N/A   Clear
9:54 AM 46.0 °F 42.5 °F 33.1 °F 61% 29.62 in 10.0 mi SSW 6.9 mph - N/A   Clear
10:54 AM 51.1 °F - 33.1 °F 50% 29.62 in 10.0 mi WSW 9.2 mph - N/A   Clear
11:54 AM 55.0 °F - 30.0 °F 38% 29.62 in 10.0 mi Variable 5.8 mph - N/A   Clear
12:54 PM 55.9 °F - 28.0 °F 34% 29.61 in 10.0 mi West 9.2 mph - N/A   Clear
1:54 PM 57.0 °F - 27.0 °F 32% 29.60 in 10.0 mi NNW 12.7 mph - N/A   Clear
2:54 PM 57.0 °F - 26.1 °F 30% 29.60 in 10.0 mi WNW 8.1 mph - N/A   Clear
3:54 PM 57.9 °F - 24.1 °F 27% 29.61 in 10.0 mi NW 11.5 mph - N/A   Clear
4:54 PM 57.0 °F - 25.0 °F 29% 29.61 in 10.0 mi NW 8.1 mph - 0.00 in Rain Light Rain
5:54 PM 57.0 °F - 25.0 °F 29% 29.63 in 10.0 mi NW 5.8 mph - 0.00 in   Clear
6:54 PM 48.9 °F - 27.0 °F 43% 29.65 in 10.0 mi Calm Calm - 0.00 in   Partly Cloudy
7:54 PM 42.1 °F - 30.0 °F 62% 29.66 in 10.0 mi Calm Calm - 0.00 in   Scattered Clouds
8:54 PM 39.9 °F - 28.9 °F 65% 29.68 in 10.0 mi Calm Calm - 0.00 in   Mostly Cloudy
9:54 PM 39.0 °F - 28.9 °F 67% 29.69 in 10.0 mi Calm Calm - N/A   Partly Cloudy
10:54 PM 37.9 °F 35.5 °F 30.0 °F 73% 29.70 in 10.0 mi North 3.5 mph - N/A   Overcast
11:54 PM 37.9 °F 35.5 °F 28.9 °F 70% 29.70 in 10.0 mi SSW 3.5 mph - 0.00 in   Overcast